Location: Noordwijk
(52.2400°N, 4.4500°E)
Time: 11:46:39
(UTC+00:00)

AO-85 - Pass Details

Date: 07 December 2022
Orbit: 516 x 753 km, 64.8° (Epoch: 04 January)

Event Time Altitude Azimuth Distance (km) Brightness Sun altitude
Rises 16:57:16 0° 277° (W) 2,908 ? -12.4°
Reaches altitude 10° 17:00:12 10° 296° (WNW) 1,953 ? -12.8°
Maximum altitude 17:03:20 19° 341° (NNW) 1,421 ? -13.3°
Enters shadow 17:05:56 12° 23° (NNE) 1,758 ? -13.7°
